[[{"header":{"parameterUnit":"m.s-1","parameterCategory":1,"la1":30.2991,"la2":30.254,"lo1":-89.0895,"lo2":-89.0444,"dy":0.0017,"dx":0.0017,"nx":28,"ny":28,"refTime":"2024-05-14T21:00:00:Z","depth":0,"parameterNumber":2,"parameterNumberName":"U-component_of_WINDS"},"data":[0,0,0,0,0,0,0,0,0,0,0,0,0,0,0,0,0,0,0,0,0,0,0,0,0,0,0,0,0,0,0,0,0,0,0,0,0,0,0,0,0,0,0,0,0,0,0,0,0,0,0,0,0,0,0,0,0,0,3.4619,3.462,0,3.4646,3.4646,3.4647,3.4477,3.4472,3.4467,3.4462,3.4496,3.4501,3.4506,0,0,0,0,0,0,0,0,0,0,0,0,0,3.4426,3.4431,3.4619,3.462,3.462,3.4646,3.4646,3.4647,3.4478,3.4472,3.4466,3.446,3.4494,3.45,3.4507,0,0,0,0,0,0,0,0,0,0,0,0,0,3.4488,3.4432,3.4619,3.4538,3.4531,3.4646,3.4646,3.4647,3.4479,3.4471,3.4464,3.4457,3.4492,3.45,3.4508,3.4703,0,0,3.4532,3.4536,0,0,0,0,0,0,0,0,3.4484,3.4495,3.455,3.4544,3.4537,3.455,3.459,3.4666,3.4481,3.4499,3.4462,3.4454,3.452,3.4525,3.4547,3.4704,3.4706,3.4533,3.4538,3.4541,3.4544,0,0,0,0,0,0,0,3.448,3.4493,3.463,3.4551,3.4543,3.4502,3.4503,3.4604,3.455,3.4497,3.4484,3.449,3.4515,3.4539,3.4546,3.4706,3.4533,3.454,3.4545,3.4548,3.5026,3.5033,0,0,0,0,0,0,3.4486,3.449,3.4629,3.4631,3.4492,3.4512,3.4513,3.4554,3.4548,3.4541,3.4496,3.4482,3.4529,3.4537,3.4547,3.4775,3.4541,3.4549,3.4554,3.5018,3.5027,3.5036,0,0,0,0,0,0,3.4483,3.45,3.4628,3.4557,3.457,3.4523,3.457,3.4558,3.4581,3.4548,3.4538,3.453,3.4524,3.4535,3.4665,3.4774,3.4553,3.456,3.5009,3.5021,3.5032,3.5233,0,0,0,0,0,0,3.4478,3.45,3.4572,3.456,3.4575,3.4745,3.4577,3.4564,3.4595,3.4577,3.4577,3.457,3.4519,3.4654,3.4673,3.4781,3.4566,3.4999,3.5014,3.5028,3.5217,3.525,3.5279,0,0,0,0,0,3.4471,3.4629,3.4577,3.4595,3.4664,3.4751,3.476,3.4696,3.4605,3.4678,3.4656,3.457,3.4759,3.4668,3.4689,3.4801,3.4992,3.501,3.5027,3.5203,3.5244,3.5279,0,0,0,0,0,0,3.4657,3.4626,3.4568,3.4726,3.4743,3.4723,3.4813,3.4742,3.4786,3.4767,3.4687,3.4689,3.4832,3.4829,3.4729,3.4989,3.4859,3.4882,3.4986,3.5025,3.5056,3.5054,3.4573,0,0,0,0,0,3.4717,3.4788,3.4758,3.49,3.4911,3.4862,3.4897,3.4846,3.4861,3.4867,3.4855,3.4874,3.4937,3.4981,3.5037,3.5215,3.5213,3.5302,3.5333,3.5359,3.538,3.5475,3.5514,3.5094,3.5094,3.5093,0,0,3.484,3.4832,3.4882,3.4938,3.4944,3.5022,3.4868,3.4957,3.5015,3.4881,3.5002,3.4994,3.501,3.5165,3.5233,3.5167,3.5496,3.5382,3.5403,3.5409,3.5497,3.5537,3.5572,3.5106,3.5103,3.5102,0,0,3.5105,3.5105,3.5224,3.5234,3.5245,3.5211,3.524,3.5231,3.522,3.534,3.5241,3.5309,3.542,3.5435,3.5458,3.5729,3.5652,3.5749,3.5913,3.6006,3.6039,3.6068,3.6166,3.6202,3.577,3.577,3.5771,0,3.5257,3.5369,3.5295,3.539,3.5418,3.5299,3.5419,3.5433,3.5464,3.5486,3.5412,3.5548,3.555,3.5707,3.5773,3.5795,3.5826,3.5749,3.604,3.6069,3.6095,3.6187,3.6223,3.5782,3.5781,3.578,3.5779,0,3.5556,3.5635,3.573,3.576,3.5799,3.5907,3.5851,3.5899,3.5845,3.5819,3.5943,3.5941,3.5995,3.6029,3.5978,3.6179,3.6138,3.6054,3.5921,3.6148,3.6233,3.6267,3.5799,3.5795,3.5791,3.5788,0,0,3.5939,3.5927,3.5963,3.5975,3.5979,3.604,3.6143,3.6194,3.6237,3.6262,3.6347,3.6444,3.6365,3.6391,3.634,3.6422,3.6637,3.6327,3.6326,3.6385,3.686,3.6924,3.6966,3.6586,3.6592,3.6597,3.6859,0,3.6197,3.637,3.6307,3.6486,3.6558,3.6447,3.6536,3.655,3.6529,3.6588,3.6565,3.6635,3.6525,3.654,3.6616,3.6595,3.6732,3.6575,3.6666,3.667,3.6666,3.701,3.7078,3.7325,3.6892,3.6897,3.6901,0,3.6522,3.6559,3.6744,3.6736,3.6764,3.6846,3.6887,3.6945,3.6959,3.6938,3.6967,3.6898,3.7,3.6868,3.7008,3.6903,3.6936,3.6932,3.694,3.6947,3.68,3.7027,3.7402,3.744,3.6953,3.6949,3.6945,0,3.6783,3.6879,3.7002,3.7016,3.701,3.707,3.707,3.7076,3.7111,3.7148,3.717,3.722,3.7248,3.7288,3.7236,3.7144,3.7384,3.7247,3.7371,3.7373,3.7427,3.7424,3.7814,3.7448,3.7448,3.7447,3.7446,0,3.7079,3.7197,3.7119,3.7195,3.7325,3.7251,3.7382,3.737,3.7376,3.7449,3.7356,3.7427,3.7353,3.7418,3.7378,3.75,3.7513,3.75,3.7488,3.7509,3.751,3.753,3.7511,3.7457,3.7455,3.7453,3.7451,0,3.7392,3.7345,3.7472,3.7455,3.7454,3.755,3.7536,3.7606,3.7578,3.7671,3.7689,3.7646,3.7717,3.7668,3.774,3.7713,3.7874,3.7838,3.7869,3.7859,3.7986,3.7975,3.8401,3.8453,3.8055,3.8059,3.8062,0,3.7584,3.7672,3.7664,3.7705,3.7711,3.7779,3.7814,3.7746,3.7786,3.7808,3.7876,3.7939,3.7985,3.8104,3.808,3.8135,3.8099,3.8245,3.8107,3.8125,3.8102,3.8097,3.8106,3.8273,3.8278,3.8282,3.8285,0,3.793,3.7902,3.7954,3.8,3.8044,3.8076,3.8102,3.8141,3.8073,3.8123,3.8193,3.8229,3.8302,3.8366,3.8411,3.8412,3.8339,3.8329,3.836,3.8382,3.8396,3.839,3.7945,3.8319,3.8316,3.8313,3.8311,3.831,3.8188,3.8261,3.8267,3.8329,3.834,3.8366,3.8431,3.8411,3.8468,3.852,3.8477,3.8562,3.8574,3.8626,3.8638,3.8704,3.8644,3.869,3.8702,3.8714,3.8732,3.8386,3.8712,3.8711,3.871,3.8709,3.8708,0,3.8528,3.8526,3.8584,3.8622,3.8672,3.8596,3.862,3.8667,3.8742,3.8758,3.8805,3.8887,3.8949,3.893,3.8985,3.9041,3.9009,3.9058,3.9053,3.9055,3.8781,3.8749,3.9084,3.9084,3.9083,3.9083,3.9083,3.9083,3.8711,3.883,3.8804,3.8929,3.8926,3.9007,3.9027,3.9051,3.9064,3.9159,3.9209,3.9195,3.9198,3.9252,3.9306,3.9299,3.9324,3.9386,3.9367,3.9111,3.9074,3.9039,3.9008,3.9392,3.9392,3.9634,3.9637,3.9638]},{"header":{"parameterUnit":"m.s-1","parameterCategory":1,"la1":30.2991,"la2":30.254,"lo1":-89.0895,"lo2":-89.0444,"dy":0.0017,"dx":0.0017,"nx":28,"ny":28,"refTime":"2024-05-14T21:00:00:Z","depth":0,"parameterNumber":3,"parameterNumberName":"V-component_of_WINDS"},"data":[0,0,0,0,0,0,0,0,0,0,0,0,0,0,0,0,0,0,0,0,0,0,0,0,0,0,0,0,0,0,0,0,0,0,0,0,0,0,0,0,0,0,0,0,0,0,0,0,0,0,0,0,0,0,0,0,0,0,0.929,0.929,0,0.9292,0.9292,0.9292,0.9249,0.9248,0.9247,0.9246,0.9248,0.9249,0.925,0,0,0,0,0,0,0,0,0,0,0,0,0,0.9249,0.925,0.929,0.929,0.929,0.9292,0.9292,0.9292,0.925,0.9248,0.9247,0.9245,0.9247,0.9249,0.925,0,0,0,0,0,0,0,0,0,0,0,0,0,0.9261,0.925,0.929,0.9269,0.9267,0.9292,0.9292,0.9292,0.925,0.9248,0.9246,0.9245,0.9247,0.9249,0.925,0.9295,0,0,0.9255,0.9256,0,0,0,0,0,0,0,0,0.926,0.9262,0.9272,0.9271,0.9269,0.9269,0.9278,0.9293,0.925,0.9257,0.9246,0.9244,0.9256,0.9257,0.9261,0.9295,0.9295,0.9255,0.9256,0.9257,0.9258,0,0,0,0,0,0,0,0.9259,0.9262,0.9291,0.9273,0.927,0.926,0.9259,0.9281,0.9266,0.9256,0.9253,0.9254,0.9255,0.926,0.9261,0.9295,0.9255,0.9257,0.9258,0.9259,0.9366,0.9368,0,0,0,0,0,0,0.9261,0.9262,0.9291,0.9291,0.926,0.9262,0.9261,0.927,0.9266,0.9263,0.9255,0.9252,0.9258,0.9259,0.9261,0.9313,0.9257,0.9259,0.926,0.9365,0.9367,0.9369,0,0,0,0,0,0,0.9261,0.9265,0.9291,0.9275,0.9278,0.9264,0.9275,0.9271,0.9276,0.9265,0.9262,0.9263,0.9256,0.9258,0.9287,0.9312,0.926,0.9261,0.9362,0.9365,0.9368,0.9418,0,0,0,0,0,0,0.926,0.9265,0.9282,0.9276,0.9279,0.9317,0.9276,0.9273,0.9279,0.9275,0.9271,0.9269,0.9255,0.9285,0.9289,0.9314,0.9262,0.936,0.9364,0.9367,0.9414,0.9422,0.9429,0,0,0,0,0,0.9258,0.9296,0.9283,0.9286,0.93,0.9319,0.932,0.9303,0.9281,0.9298,0.9291,0.9269,0.9309,0.9288,0.9292,0.9318,0.9358,0.9363,0.9367,0.9411,0.9421,0.9429,0,0,0,0,0,0,0.9304,0.9294,0.928,0.9317,0.9319,0.9312,0.9332,0.9315,0.9323,0.9318,0.9297,0.9297,0.9329,0.9326,0.9303,0.9361,0.933,0.9335,0.9362,0.9371,0.9379,0.9378,0.9264,0,0,0,0,0,0.9319,0.9335,0.9325,0.9358,0.936,0.9346,0.9354,0.9341,0.9342,0.9343,0.9338,0.934,0.9353,0.9362,0.9373,0.9413,0.9412,0.9433,0.9441,0.9447,0.9452,0.9473,0.9482,0.9382,0.9382,0.9382,0,0,0.9348,0.9345,0.9357,0.9368,0.9368,0.9385,0.9347,0.9367,0.938,0.9346,0.9372,0.9369,0.937,0.9405,0.942,0.9404,0.9479,0.9452,0.9458,0.9459,0.9478,0.9488,0.9496,0.9385,0.9385,0.9384,0,0,0.9411,0.9411,0.9438,0.9439,0.944,0.943,0.9437,0.9433,0.9429,0.9455,0.943,0.9445,0.9467,0.9469,0.9473,0.9537,0.9517,0.9541,0.9581,0.9602,0.9609,0.9616,0.9639,0.9648,0.9546,0.9546,0.9546,0,0.9448,0.9473,0.9454,0.9476,0.9481,0.9452,0.9479,0.9481,0.9486,0.949,0.9472,0.95,0.9499,0.9533,0.9549,0.9553,0.956,0.9542,0.961,0.9617,0.9623,0.9644,0.9653,0.9549,0.9549,0.9548,0.9548,0,0.9518,0.9536,0.9558,0.9564,0.9572,0.9596,0.9581,0.9591,0.9577,0.957,0.9597,0.9594,0.9605,0.9612,0.9598,0.9645,0.9635,0.9614,0.9581,0.9636,0.9655,0.9663,0.9553,0.9552,0.9551,0.9551,0,0,0.961,0.9605,0.9613,0.9615,0.9614,0.9628,0.9651,0.9661,0.967,0.9674,0.9693,0.9713,0.9694,0.9698,0.9684,0.9703,0.9754,0.9679,0.9679,0.9693,0.9804,0.982,0.983,0.974,0.9742,0.9743,0.9804,0,0.9671,0.9711,0.9695,0.9735,0.9751,0.9723,0.9743,0.9745,0.9739,0.9751,0.9744,0.9758,0.9732,0.9734,0.9751,0.9744,0.9776,0.9739,0.9758,0.9759,0.9758,0.9841,0.9857,0.9915,0.9812,0.9813,0.9814,0,0.9748,0.9755,0.9798,0.9794,0.98,0.9819,0.9827,0.9839,0.984,0.9834,0.9839,0.9822,0.9844,0.9812,0.9842,0.9818,0.9824,0.9822,0.9824,0.9825,0.979,0.9844,0.9933,0.9942,0.9826,0.9825,0.9824,0,0.9811,0.9831,0.9859,0.9862,0.9858,0.9872,0.9871,0.987,0.9877,0.9884,0.9889,0.9898,0.9903,0.9911,0.9896,0.9874,0.9929,0.9896,0.9924,0.9925,0.9937,0.9937,1.0029,0.9941,0.9941,0.9941,0.9941,0,0.9881,0.9908,0.9887,0.9905,0.9934,0.9915,0.9945,0.9941,0.9941,0.9957,0.9933,0.9948,0.9928,0.9942,0.993,0.9957,0.996,0.9955,0.9952,0.9957,0.9958,0.9961,0.9957,0.9943,0.9943,0.9943,0.9942,0,0.9955,0.9943,0.9972,0.9966,0.9965,0.9987,0.9982,0.9998,0.999,1.001,1.0014,1.0001,1.0016,1.0002,1.0016,1.0008,1.0044,1.0035,1.0044,1.0041,1.0071,1.0068,1.0169,1.0181,1.0086,1.0087,1.0087,0,1.0001,1.0021,1.0017,1.0026,1.0027,1.0042,1.0049,1.0031,1.004,1.0043,1.0058,1.0071,1.008,1.0105,1.0096,1.0107,1.0098,1.0132,1.0099,1.0104,1.0098,1.0097,1.0099,1.0139,1.014,1.0141,1.0142,0,1.0083,1.0076,1.0087,1.0097,1.0106,1.0113,1.0117,1.0126,1.0108,1.0118,1.0133,1.014,1.0154,1.0167,1.0175,1.0174,1.0155,1.0152,1.016,1.0165,1.017,1.0168,1.0062,1.015,1.0149,1.0149,1.0148,1.0148,1.0144,1.0161,1.0161,1.0174,1.0176,1.0181,1.0196,1.019,1.0202,1.0212,1.0201,1.0219,1.0219,1.0228,1.0229,1.0243,1.0228,1.0239,1.0242,1.0244,1.0249,1.0168,1.0244,1.0244,1.0244,1.0244,1.0243,0,1.0225,1.0223,1.0236,1.0244,1.0254,1.0236,1.024,1.025,1.0266,1.0269,1.0278,1.0295,1.0308,1.0301,1.0311,1.0324,1.0315,1.0327,1.0326,1.0326,1.0261,1.0254,1.0334,1.0334,1.0334,1.0334,1.0334,1.0334,1.0268,1.0295,1.0288,1.0316,1.0315,1.0332,1.0336,1.0341,1.0343,1.0363,1.0373,1.0369,1.0367,1.0377,1.0388,1.0386,1.0391,1.0406,1.04,1.034,1.0331,1.0322,1.0315,1.0407,1.0407,1.0464,1.0465,1.0465]}]]